GSAT-9

Last updated on Thu Oct 30 2025 00:02:50 GMT+0000 (Coordinated Universal Time)

1 42695U 17024A 25301.70004215 -.00000277 00000+0 00000+0 0 9995 2 42695 0.0358 258.6075 0003003 319.6521 168.3847 1.00273923 30973
UTC large
Height (km)
Speed (km/s)
/
Latitude / Longitude
Inclination (degrees)
Orbital Period (minutes)
Azimuth
Elevation
Range (km)
Doppler Factor

Next 0 passes for location: London (51.5072 / 0.1276)

Sorry there are no passes over London.